Weather History for KMKC - February, 2013

Change the Weather History Date:

Wednesday, February 6, 2013

  Actual Average (KMCI) Record (KMCI)
Temperature  
Mean Temperature 45 °F 31 °F  
Max Temperature 62 °F 41 °F 70 °F (1904)
Min Temperature 28 °F 21 °F -19 °F (1982)
Degree Days  
Heating Degree Days 20 34  
Month to date heating degree days 208  
Since 1 July heating degree days 3372  
Cooling Degree Days 0 0  
Month to date cooling degree days 0  
Year to date cooling degree days 0  
Moisture  
Dew Point 31 °F    
Average Humidity 56    
Maximum Humidity 82    
Minimum Humidity 35    
Precipitation  
Precipitation 0.06 in 0.04 in 2.04 in (1928)
Month to date precipitation 0.27  
Year to date precipitation 1.34  
Snow  
Snow 0.00 in 0.20 in 2.30 in (1933)
Month to date snowfall 1.2  
Since 1 July snowfall 12.0  
Snow Depth -    
Sea Level Pressure  
Sea Level Pressure 30.01 in    
Wind  
Wind Speed 5 mph (SSE)    
Max Wind Speed 17 mph    
Max Gust Speed 24 mph    
Visibility 10 miles    
Events Rain , Thunderstorm    
T = Trace of Precipitation, MM = Missing Value Source: NWS Daily Summary

Daily Weather History Graph

Daily Weather History Graph

Search for Another Location

Airport or City:

Trip Planner

Search our weather history database for the weather conditions in past years. The results will help you decide how hot, cold, wet, or windy it might be!

Date:

Astronomy

Feb. 06, 2013 Rise Set
Actual Time 7:19 AM CST 5:45 PM CST
Civil Twilight 6:52 AM CST 6:13 PM CST
Nautical Twilight 6:20 AM CST 6:45 PM CST
Astronomical Twilight 5:49 AM CST 7:16 PM CST
Moon 4:03 AM CST (2/6) 2:05 PM CST (2/6)
Length of Visible Light 11h 21m
Length of Day
10h 25m
Waning Crescent, 17% of the Moon is Illuminated
Feb 6
Waning Crescent
Feb 10
New
Feb 17
First Quarter
Feb 25
Full
Mar 4
Last Quarter

Hourly Weather History & Observations

Time (CST) Temp. Windchill Dew Point Humidity Pressure Visibility Wind Dir Wind Speed Gust Speed Precip Events Conditions
12:54 AM 30.9 °F 26.2 °F 25.0 °F 79% 30.11 in 10.0 mi SSW 4.6 mph - N/A   Clear
1:54 AM 28.9 °F - 23.0 °F 78% 30.12 in 10.0 mi Calm Calm - N/A   Clear
2:54 AM 32.0 °F - 27.0 °F 82% 30.10 in 10.0 mi Calm Calm - N/A   Clear
3:54 AM 30.9 °F - 25.0 °F 79% 30.11 in 10.0 mi Calm Calm - N/A   Clear
4:54 AM 32.0 °F 28.7 °F 25.0 °F 75% 30.11 in 10.0 mi ENE 3.5 mph - N/A   Clear
5:54 AM 34.0 °F - 26.1 °F 73% 30.10 in 10.0 mi Calm Calm - N/A   Clear
6:54 AM 37.0 °F 34.5 °F 27.0 °F 67% 30.09 in 10.0 mi Variable 3.5 mph - N/A   Clear
7:54 AM 39.0 °F 33.4 °F 28.9 °F 67% 30.11 in 10.0 mi SSE 8.1 mph 19.6 mph N/A   Clear
8:54 AM 43.0 °F - 28.9 °F 58% 30.10 in 10.0 mi Calm Calm - N/A   Clear
9:54 AM 48.0 °F - 28.0 °F 46% 30.10 in 10.0 mi SSE 5.8 mph - N/A   Clear
10:54 AM 52.0 °F - 28.0 °F 40% 30.07 in 10.0 mi SSE 5.8 mph - N/A   Clear
11:54 AM 55.0 °F - 30.0 °F 38% 30.04 in 10.0 mi SSE 4.6 mph - N/A   Clear
12:54 PM 59.0 °F - 30.9 °F 35% 30.01 in 10.0 mi SSE 11.5 mph 16.1 mph N/A   Clear
1:54 PM 61.0 °F - 34.0 °F 36% 29.95 in 10.0 mi SSE 9.2 mph 17.3 mph N/A   Clear
2:54 PM 62.1 °F - 35.1 °F 37% 29.94 in 10.0 mi South 13.8 mph - N/A   Mostly Cloudy
3:54 PM 62.1 °F - 37.0 °F 39% 29.92 in 10.0 mi South 12.7 mph - N/A   Clear
4:54 PM 61.0 °F - 37.9 °F 42% 29.89 in 10.0 mi SSE 11.5 mph 17.3 mph N/A   Clear
5:54 PM 60.1 °F - 37.9 °F 44% 29.89 in 10.0 mi SSE 8.1 mph 17.3 mph N/A   Clear
6:54 PM 57.9 °F - 37.0 °F 46% 29.90 in 10.0 mi South 13.8 mph 23.0 mph N/A   Partly Cloudy
7:45 PM 30.2 °F - 23.0 °F 75% 30.12 in 7.0 mi Calm Calm - N/A   Overcast
7:54 PM 55.9 °F - 36.0 °F 47% 29.89 in 10.0 mi South 17.3 mph 24.2 mph N/A   Clear
8:54 PM 55.0 °F - 36.0 °F 49% 29.91 in 10.0 mi South 11.5 mph - N/A   Mostly Cloudy
9:54 PM 55.0 °F - 36.0 °F 49% 29.92 in 10.0 mi South 13.8 mph - N/A   Overcast
10:54 PM 54.0 °F - 36.0 °F 51% 29.92 in 10.0 mi South 10.4 mph 20.7 mph N/A   Overcast
11:49 PM 53.6 °F - 37.4 °F 54% 29.91 in 5.0 mi South 8.1 mph 18.4 mph 0.04 in Thunderstorm Unknown
11:54 PM 52.0 °F - 39.0 °F 61% 29.91 in 4.0 mi South 5.8 mph - 0.06 in Rain , Thunderstorm Heavy Thunderstorms and Rain